This demonstration page uses our WeatherBlox Daily Observations layout. Learn more.

Left ArrowRight Arrow

Hourly Observations for August 10, 2021

Temp ( °F °C ) Dew Point ( °F °C ) Humidity (%) Winds ( mph kmh ) Pressure ( in mb ) Visibility ( mi km ) Precip ( " mm )
12:59 am 00:59 Clear 77 25 70 21.1 79 79 S 6 9 30.18 1022 10 16 0.00 0.00
1:59 am 01:59 Clear 77 25 70 21.1 79 79 S 5 7 30.18 1022 9 14 0.00 0.00
2:59 am 02:59 Clear 78 25.6 72 22.2 82 82 SSW 9 15 30.17 1022 9 14 0.00 0.00
3:59 am 03:59 Clear 76 24.4 72 22.2 88 88 SSW 5 7 30.17 1022 9 14 0.00 0.00
4:59 am 04:59 Clear 76 24.4 72 22.2 88 88 SSW 6 9 30.18 1022 8 13 0.00 0.00
5:59 am 05:59 Clear 76 24.4 72 22.2 88 88 SSW 7 11 30.19 1022 8 13 0.00 0.00
6:59 am 06:59 Sunny 77 25 72 22.2 85 85 SW 8 13 30.20 1023 7 11 0.00 0.00
7:59 am 07:59 Sunny 78 25.6 73 22.8 85 85 SSW 5 7 30.20 1023 8 13 0.00 0.00
8:59 am 08:59 Sunny 81 27.2 73 22.8 77 77 SSW 7 11 30.19 1023 8 13 0.00 0.00
9:59 am 09:59 Sunny 84 28.9 73 22.8 70 70 SSW 6 9 30.19 1022 9 14 0.00 0.00
10:59 am 10:59 Mostly Sunny 86 30 72 22.2 63 63 WSW 7 11 30.19 1023 9 14 0.00 0.00
11:59 am 11:59 Mostly Sunny 88 31.1 73 22.8 61 61 VRB 6 9 30.19 1023 9 14 0.00 0.00
12:59 pm 12:59 Mostly Sunny 89 31.7 69 20.6 52 52 W 6 9 30.18 1022 10 16 0.00 0.00
1:59 pm 13:59 Partly Cloudy 90 32.2 71 21.7 54 54 VRB 7 11 30.15 1021 10 16 0.00 0.00
2:59 pm 14:59 Partly Cloudy 90 32.2 70 21.1 52 52 SW 9 15 30.13 1020 9 14 0.00 0.00
3:59 pm 15:59 Partly Cloudy 90 32.2 71 21.7 54 54 S 8 13 30.11 1020 9 14 0.00 0.00
4:59 pm 16:59 Partly Cloudy 90 32.2 71 21.7 54 54 SSW 8 13 30.11 1020 9 14 0.00 0.00
5:59 pm 17:59 Partly Cloudy 89 31.7 71 21.7 55 55 S 9 15 30.10 1019 9 14 0.00 0.00
6:59 pm 18:59 Sunny 88 31.1 70 21.1 55 55 undefined N/A 30.09 1019 9 14 0.00 0.00
7:59 pm 19:59 Mostly Sunny 85 29.4 69 20.6 59 59 SSW 7 11 30.10 1019 9 14 0.00 0.00
8:59 pm 20:59 Clear 83 28.3 70 21.1 65 65 S 3 6 30.11 1020 9 14 0.00 0.00
9:59 pm 21:59 Clear 83 28.3 71 21.7 67 67 S 7 11 30.12 1020 10 16 0.00 0.00
10:59 pm 22:59 Clear 82 27.8 72 22.2 72 72 SSW 7 11 30.11 1020 10 16 0.00 0.00
11:59 pm 23:59 Clear 81 27.2 73 22.8 77 77 SSW 8 13 30.13 1020 10 16 0.00 0.00

Powered by AerisWeather